GFSSW_925_spd_252.txt.gz
Wind_Speed
15 17 18 18 19 18 19 19 19 18 16 16 15 12 12 8 9 11 15 15 14 18 18 17 11 14 10 11 12 10 4 7 17 21 19 16 17 21 12 14 20 18 14 5 9
15 17 18 18 19 19 20 19 18 18 17 14 12 10 9 5 3 14 13 16 17 18 15 15 13 16 6 8 5 9 9 8 15 8 3 14 14 17 16 14 23 16 9 5 12
17 18 19 19 20 19 20 20 19 18 15 11 8 9 8 1 0 11 16 18 20 15 9 8 11 10 8 7 10 8 17 18 17 13 8 4 14 19 17 21 24 19 11 11 12
17 18 19 19 20 19 20 20 20 14 11 8 7 7 7 1 3 13 19 20 17 11 8 9 10 10 7 7 5 7 16 17 17 17 19 11 4 19 17 19 3 2 7 10 12
17 19 20 20 20 19 20 21 15 9 8 8 7 8 4 8 10 17 18 20 13 11 8 8 8 9 8 10 9 14 14 17 17 14 19 15 16 20 15 14 7 10 8 10 12
18 20 21 22 21 21 21 19 8 7 7 6 7 5 10 14 16 18 18 20 16 9 9 5 6 9 9 11 9 8 16 18 13 16 13 13 15 16 14 9 5 5 12 14 15
19 21 21 23 20 23 22 12 5 5 6 4 7 3 8 12 17 20 22 27 12 10 7 4 5 7 12 11 4 9 10 7 9 14 12 7 15 19 16 5 8 12 14 17 19
19 20 20 23 19 24 20 8 6 4 4 4 8 2 3 12 20 18 23 26 13 5 5 4 5 7 6 10 6 5 3 4 4 5 7 8 9 5 9 10 9 9 12 16 19
19 19 20 22 19 24 13 7 7 3 1 7 6 3 3 15 30 22 23 20 17 6 3 3 3 3 6 8 5 1 5 4 2 7 4 10 4 3 9 9 7 4 11 11 16
19 17 19 21 17 23 6 14 13 14 3 4 12 3 9 15 18 14 29 16 6 9 0 4 3 5 9 9 5 9 6 7 6 9 9 8 9 1 4 8 5 1 7 9 12
19 15 17 20 12 21 6 1 2 2 13 6 2 3 12 23 6 24 32 14 7 5 8 4 5 10 14 8 6 7 7 8 3 5 9 9 7 5 3 4 3 8 11 8 12
18 15 18 17 6 16 11 6 4 2 5 4 2 5 15 16 9 21 32 9 7 11 12 1 8 13 13 6 10 5 7 6 5 3 6 2 5 9 10 4 3 6 3 6 8
16 16 17 13 4 10 14 6 1 3 1 5 3 7 11 11 7 18 22 12 7 10 9 4 8 13 8 7 12 6 7 8 7 11 3 7 4 7 6 6 3 4 7 7 5
14 16 16 9 2 6 4 8 2 2 1 12 9 7 14 10 4 15 22 5 5 7 8 2 9 10 7 6 12 3 10 9 8 7 2 6 4 5 6 6 4 4 7 8 1
12 15 15 12 2 3 7 2 3 0 2 13 6 8 14 10 9 15 20 5 7 8 6 7 10 11 11 9 9 5 12 8 4 3 6 3 1 5 5 5 4 4 4 7 1
11 10 16 7 5 7 2 4 1 1 3 5 6 12 11 11 8 15 13 12 1 4 5 7 5 3 8 12 5 9 7 4 1 2 2 4 5 7 7 10 11 10 2 4 4
9 1 18 9 4 7 3 2 1 4 6 9 7 12 9 13 8 13 10 15 12 8 10 12 3 3 10 9 3 14 6 2 2 1 2 3 0 5 10 12 11 13 12 7 3
5 1 12 15 9 1 1 0 6 2 4 6 8 12 8 15 8 15 9 9 13 11 3 8 3 11 13 6 7 7 6 3 2 1 4 1 3 4 13 12 14 13 8 8 8
1 1 6 17 8 2 1 6 2 1 5 8 8 4 5 9 9 10 9 9 8 13 6 8 4 10 8 9 5 5 5 5 3 2 3 2 5 4 19 20 21 18 15 13 14
1 2 6 14 6 1 5 4 1 2 4 3 6 5 6 10 10 11 8 3 8 12 2 5 6 4 8 4 3 4 8 2 2 3 3 5 5 7 19 19 19 19 18 16 14
1 1 10 7 5 6 4 3 2 1 3 4 3 4 3 5 6 6 6 3 9 12 2 4 2 8 3 8 9 7 5 5 2 3 4 3 4 8 12 13 16 16 17 17 15
2 1 12 5 4 3 3 3 1 2 2 1 0 2 2 5 4 4 4 3 7 11 6 5 3 5 3 9 5 5 8 8 5 5 2 3 4 8 12 12 15 17 17 17 17
2 1 8 4 3 3 3 3 2 2 3 3 2 3 2 3 3 4 5 4 9 7 7 7 2 5 0 3 6 6 12 10 7 4 6 4 4 11 13 14 18 18 18 17 18
2 1 4 5 2 4 4 2 2 1 1 2 1 1 5 1 1 4 6 4 11 5 12 5 2 2 5 7 9 6 12 10 5 3 8 7 5 17 20 18 19 19 18 16 16
3 2 2 2 3 5 2 2 2 2 1 0 2 3 4 3 3 2 4 9 4 7 6 4 2 3 11 5 8 8 11 12 7 8 6 7 5 14 18 17 15 13 17 17 18
3 4 3 3 4 3 2 2 3 2 2 2 1 4 3 4 2 4 4 3 3 7 4 6 3 6 3 4 6 9 16 9 9 10 7 9 3 17 16 13 14 14 17 18 17
3 4 3 2 2 1 2 4 3 1 3 3 2 4 5 6 5 10 11 13 12 7 4 5 6 6 2 5 4 3 10 10 5 11 8 6 10 17 18 16 13 16 16 16 17

GFSSW_925_spd_258.txt.gz
Wind_Speed
14 16 16 16 17 18 19 19 18 16 14 11 8 7 5 8 12 10 10 13 18 20 20 19 17 15 18 9 8 8 4 6 10 14 17 15 17 11 10 13 19 11 14 17 28
14 16 17 17 17 18 18 19 18 14 10 7 6 8 7 10 15 11 11 16 19 22 18 18 13 13 8 12 3 6 8 15 17 13 17 13 3 13 13 14 12 13 18 20 22
15 17 18 18 18 18 19 17 14 10 8 7 7 8 10 6 9 9 18 19 21 23 19 21 17 13 16 9 9 5 11 16 17 13 13 10 10 7 15 11 8 10 17 11 16
16 18 18 19 18 18 19 16 10 7 8 6 7 8 9 6 4 17 20 23 24 22 17 15 10 15 10 12 9 9 15 14 16 15 15 6 5 7 12 15 5 9 13 9 14
17 19 19 20 19 20 19 12 6 5 5 5 6 9 10 2 9 21 19 23 24 16 15 12 12 13 9 16 14 15 14 14 11 13 13 16 13 11 13 14 9 8 11 12 9
18 20 20 20 18 21 20 7 4 4 5 5 7 12 7 6 15 21 21 24 25 16 13 11 7 10 10 13 11 11 12 15 16 17 17 16 15 14 16 10 12 12 8 7 5
18 19 20 21 17 20 14 5 2 5 6 6 6 6 8 6 17 18 22 26 25 16 9 12 11 7 11 13 8 15 18 14 16 17 10 13 16 17 16 12 13 9 5 3 8
18 18 20 21 16 19 10 6 5 5 2 9 6 7 1 10 24 17 25 31 28 15 8 10 9 9 10 13 17 16 3 6 14 8 6 8 9 12 14 12 12 5 5 4 9
18 18 21 21 15 19 5 7 9 5 7 6 7 3 2 17 32 20 30 30 28 10 11 7 6 7 9 9 5 4 10 15 9 11 5 11 8 6 7 8 11 6 7 7 11
17 17 20 21 13 19 4 5 4 10 5 4 6 2 7 16 28 17 36 35 11 12 11 5 4 5 6 7 8 12 14 11 12 6 6 7 11 1 8 3 5 4 2 7 7
17 16 20 20 12 16 10 7 4 2 12 6 3 1 11 21 15 24 36 34 16 10 5 3 5 9 11 10 8 12 13 11 10 3 3 5 8 5 6 5 5 4 5 6 2
17 15 20 18 10 18 7 5 4 2 1 2 6 3 17 21 8 18 33 12 10 9 14 3 7 13 14 9 12 13 9 8 10 10 7 7 10 9 8 8 2 7 6 6 6
18 14 18 14 7 8 13 8 3 3 3 3 2 5 13 15 6 20 23 11 11 11 12 7 12 13 16 8 13 11 11 11 14 18 14 11 6 9 7 7 10 13 10 9 8
16 11 16 11 4 6 5 6 2 2 1 7 8 6 13 12 3 19 27 8 6 9 10 4 11 14 15 14 15 12 12 13 15 11 4 10 3 6 9 12 16 16 14 13 11
16 9 15 11 5 4 6 4 2 2 2 9 5 5 11 14 8 16 28 6 9 10 4 8 9 11 12 14 15 7 18 12 12 8 4 3 2 5 8 11 17 15 16 17 15
14 6 11 4 2 5 4 2 2 0 3 5 5 12 13 14 9 12 11 14 11 6 10 9 7 5 9 16 7 15 11 10 9 2 1 6 2 9 7 12 17 15 18 20 24
10 4 11 5 3 6 1 4 2 6 5 9 6 10 7 10 10 15 11 21 14 9 9 12 8 6 16 12 9 18 10 4 3 2 1 8 8 7 12 15 13 13 16 17 19
5 3 7 11 6 3 3 1 8 2 4 6 6 13 5 10 7 13 7 8 15 9 3 7 7 14 13 10 9 9 5 3 4 4 2 7 4 4 11 14 14 13 13 18 20
3 4 1 13 7 3 1 6 1 4 3 8 7 4 5 11 9 8 7 6 9 12 5 8 5 12 16 11 12 8 5 5 4 8 3 4 5 5 19 19 25 21 20 18 18
2 2 3 11 6 2 4 4 2 4 4 4 5 6 5 8 7 7 8 2 5 10 4 3 6 8 11 9 9 8 11 4 3 5 3 4 5 8 21 22 23 23 22 23 20
1 2 4 5 8 4 4 3 4 4 5 5 4 4 4 4 4 5 6 2 10 7 4 3 1 8 5 7 10 6 6 5 4 3 3 2 4 8 13 14 16 18 18 19 20
2 0 7 5 4 2 2 3 1 3 2 2 1 3 2 5 3 2 5 4 9 10 5 4 1 5 2 3 11 11 11 6 3 5 4 2 3 8 12 11 11 18 18 19 19
1 2 5 4 3 2 3 4 4 2 3 3 2 3 2 3 2 5 5 6 7 8 6 6 3 5 7 4 7 5 16 13 10 5 7 4 3 11 12 15 15 16 18 18 20
1 2 3 4 1 4 4 3 4 2 2 1 1 3 4 4 2 3 6 5 5 6 10 6 2 2 2 4 3 5 11 11 8 4 6 4 5 16 19 19 18 17 19 17 17
2 1 1 2 3 5 4 2 5 3 1 1 3 2 3 1 3 2 5 6 5 9 6 3 3 5 9 10 5 6 10 12 8 10 5 10 3 12 17 16 15 14 17 19 20
3 3 3 3 5 3 1 1 4 3 2 3 1 4 3 3 3 3 3 2 3 6 3 5 3 6 3 6 1 4 11 12 5 9 6 9 2 16 14 13 10 14 17 17 18
4 3 4 2 2 1 2 4 3 4 0 2 2 3 4 2 6 6 5 6 6 4 5 4 4 4 3 3 1 4 6 5 6 5 6 7 10 17 17 17 10 14 15 16 17

GFSSW_925_spd_261.txt.gz
Wind_Speed
14 16 16 16 16 16 17 17 15 12 10 8 8 9 8 11 12 13 4 12 17 20 21 23 22 22 16 5 4 4 2 5 9 11 9 13 14 2 2 6 7 3 16 17 31
14 15 16 16 16 17 17 16 13 10 8 7 7 9 10 11 9 6 13 17 21 23 24 19 12 16 4 6 4 3 4 7 9 13 15 12 8 15 5 6 9 12 15 25 30
15 16 17 17 16 17 17 15 10 8 7 7 8 9 11 10 4 5 21 21 23 25 20 20 18 6 6 3 5 1 4 7 13 14 13 11 5 6 7 9 2 6 12 19 21
16 17 17 18 17 17 17 12 7 6 6 6 8 10 13 5 3 19 22 22 25 25 17 16 7 7 5 6 5 5 11 13 15 15 12 7 4 9 7 14 8 6 4 9 16
16 18 18 18 17 18 17 9 6 6 6 5 7 10 6 3 3 23 20 24 31 29 15 5 7 4 5 8 10 9 9 10 12 15 12 9 12 12 12 12 10 6 9 8 13
17 18 19 19 17 19 14 6 5 7 8 7 7 10 3 5 21 20 20 26 30 29 13 5 4 5 7 7 4 7 12 14 13 14 17 15 17 8 11 12 15 11 9 6 9
18 19 19 19 16 17 12 6 3 4 6 8 8 8 2 4 27 16 20 33 30 25 7 5 5 2 6 7 7 12 13 8 8 11 5 5 11 12 14 11 12 8 6 11 9
17 17 19 19 15 17 9 5 5 6 7 8 11 6 1 11 27 24 29 40 32 12 11 11 6 4 3 7 5 5 4 6 10 6 4 7 10 10 6 12 13 7 7 8 9
17 17 19 19 13 16 3 2 6 12 5 2 5 2 3 16 34 23 37 31 25 9 8 7 0 4 5 5 5 3 5 13 8 2 4 3 7 6 5 5 9 8 5 6 8
16 16 19 19 13 14 7 9 6 12 4 2 5 3 6 9 26 28 44 30 5 9 4 3 2 2 5 5 7 11 10 7 10 6 5 5 7 12 8 15 6 7 4 7 4
16 15 18 17 13 15 9 2 5 5 11 6 1 1 5 20 9 25 36 19 11 7 6 1 7 8 10 8 5 6 9 9 7 5 7 4 6 3 8 13 7 8 7 7 4
16 13 17 13 11 16 9 7 3 1 2 0 3 2 14 14 5 15 33 8 7 6 10 7 7 11 15 9 11 8 6 6 9 15 12 8 10 3 10 8 12 13 10 12 13
15 13 16 10 5 10 18 7 4 1 3 2 2 3 7 8 5 14 20 7 4 8 8 3 4 11 11 10 12 10 3 10 13 13 8 10 3 5 10 16 18 20 17 15 14
15 12 14 10 2 4 5 6 2 1 5 9 7 5 10 4 7 11 24 5 7 6 8 3 8 8 12 11 11 6 4 14 12 7 2 6 2 14 12 13 20 19 17 15 14
14 9 11 12 3 4 4 1 2 1 5 7 5 6 8 8 5 9 23 5 4 5 4 6 7 7 13 16 14 5 17 10 8 5 4 3 3 8 8 17 23 19 19 18 16
11 7 9 3 2 4 1 2 1 5 2 5 4 7 6 7 6 11 8 12 1 5 6 5 7 3 9 14 6 18 8 3 1 2 1 6 2 9 10 15 20 18 20 20 20
7 5 11 7 2 3 3 2 4 7 4 8 5 6 4 6 7 8 9 16 11 8 8 8 7 10 15 10 6 20 7 4 5 4 2 7 8 5 10 15 14 19 19 15 16
3 3 5 12 5 1 2 5 9 3 3 3 5 8 4 7 6 8 5 5 7 5 2 6 9 9 15 7 6 6 4 2 2 4 4 6 4 3 16 13 13 13 14 17 20
2 3 2 11 5 1 5 7 6 1 2 5 5 5 5 6 3 7 4 5 5 4 4 6 5 7 9 7 8 8 5 4 4 3 2 3 6 6 22 20 24 24 21 21 22
1 2 2 8 5 3 6 5 2 2 1 2 2 3 4 6 6 5 3 4 6 5 2 4 6 2 8 7 7 7 7 6 4 5 4 3 5 8 21 24 24 24 23 21 23
3 2 5 5 4 6 4 3 4 1 1 3 1 1 3 3 3 4 5 1 6 7 3 1 3 8 4 6 10 7 5 4 3 2 3 3 3 8 13 16 19 18 19 19 20
3 2 7 4 4 3 2 4 3 3 1 1 2 2 1 2 2 3 4 4 5 4 2 3 3 3 4 3 8 15 5 4 2 4 2 2 2 7 13 14 16 16 19 19 19
3 1 4 1 3 1 3 3 3 3 1 2 2 1 1 1 2 2 3 2 5 7 5 4 3 4 10 6 6 6 11 8 4 3 5 3 2 11 16 17 18 17 19 17 19
3 2 4 4 1 7 5 3 3 1 2 2 1 3 4 4 2 3 4 3 5 5 12 4 1 4 4 7 2 4 8 10 6 3 6 2 9 14 22 22 21 18 19 20 18
3 2 2 1 3 5 4 4 4 3 1 1 2 2 3 1 5 1 2 4 5 10 5 4 1 3 11 13 2 5 5 9 6 7 3 10 7 11 18 18 17 13 16 18 20
4 4 3 2 3 6 3 3 5 3 4 2 4 2 3 4 6 4 2 1 2 5 4 4 3 4 4 4 2 3 10 9 4 7 4 9 5 16 16 14 14 16 18 19 20
4 4 5 2 2 4 4 5 4 7 2 2 4 3 2 2 1 3 3 2 4 2 3 3 3 3 4 5 2 4 4 3 4 4 4 6 9 18 20 18 15 16 18 19 20

GFSSW_925_spd_264.txt.gz
Wind_Speed
14 15 15 15 15 15 15 14 11 9 8 8 8 8 9 8 6 14 4 16 19 21 23 22 18 19 18 3 4 4 2 5 8 10 7 12 14 6 5 6 2 3 5 10 26
14 15 15 15 15 15 15 12 8 8 8 8 8 9 10 9 2 6 19 19 21 23 27 15 7 10 2 4 3 4 3 7 6 8 11 16 12 10 2 6 8 5 7 10 20
14 15 15 15 15 16 15 11 6 6 6 7 8 10 14 7 2 4 22 19 21 29 24 16 12 5 4 4 4 4 5 5 13 12 13 14 13 5 4 7 6 8 11 5 16
14 16 16 16 15 16 14 8 6 6 6 6 8 11 10 3 2 14 24 20 23 33 19 9 6 6 4 4 4 5 9 14 11 8 7 9 3 5 7 13 8 5 2 3 10
15 16 17 17 16 16 12 6 6 7 8 7 8 11 4 6 5 24 22 22 32 28 13 4 5 4 4 6 6 5 10 9 14 14 14 10 10 10 11 13 9 10 7 2 9
15 17 18 18 15 15 11 5 3 6 10 8 10 8 3 5 19 19 29 33 27 20 12 5 2 5 5 5 2 5 14 21 13 12 8 7 9 5 10 7 9 10 10 4 6
15 16 17 18 14 15 10 5 4 4 3 7 11 8 4 6 26 21 37 36 20 9 3 5 4 1 2 6 5 9 7 10 5 6 4 2 3 6 14 12 14 10 9 16 16
15 16 17 18 13 14 7 5 8 10 4 5 7 3 2 7 24 25 37 36 21 6 4 6 5 2 2 5 7 5 3 6 12 8 5 3 7 7 5 7 10 7 4 9 10
13 15 16 17 12 13 5 1 5 13 2 2 3 2 3 14 30 25 31 24 21 16 4 2 2 1 6 3 4 5 5 9 8 10 5 2 5 5 8 8 9 9 8 10 8
13 14 15 14 12 14 5 5 2 15 5 1 4 3 4 8 22 24 48 23 4 11 5 5 5 2 5 6 6 12 5 5 7 9 14 4 7 7 13 18 12 14 9 6 5
11 12 14 11 11 15 4 6 4 5 12 4 1 2 7 19 6 26 40 12 8 6 6 4 8 8 9 5 4 6 6 7 13 5 10 7 9 14 16 20 19 17 13 12 12
12 11 12 8 7 15 6 7 2 4 5 1 1 3 10 8 6 21 30 7 7 5 8 6 3 5 9 11 6 7 5 6 9 11 5 7 11 10 13 13 14 15 17 18 17
11 11 11 9 2 8 15 7 5 3 5 2 2 3 6 4 4 14 18 7 5 7 6 0 5 8 9 9 12 8 4 6 11 12 4 6 4 17 10 16 22 21 19 18 17
11 8 10 6 2 2 4 3 3 2 5 8 7 6 11 3 6 11 23 2 7 6 7 4 7 8 13 13 8 4 4 15 13 5 2 2 1 17 16 18 24 23 21 20 22
9 7 8 8 2 3 2 2 2 2 4 7 5 4 6 9 5 12 20 7 4 6 4 5 7 9 17 12 7 8 20 13 6 3 1 1 5 10 12 21 25 23 23 22 20
6 6 5 3 5 3 2 3 1 6 3 4 5 7 6 7 7 9 9 9 2 5 5 4 7 5 9 16 4 15 6 4 2 2 3 6 4 8 12 17 22 19 23 21 21
3 4 11 5 2 2 5 1 5 6 3 6 4 6 3 6 7 8 8 12 9 8 9 8 7 8 14 10 5 17 7 4 5 5 2 3 10 3 9 16 16 19 22 21 19
3 3 6 9 3 3 2 5 7 3 2 2 4 4 4 8 5 9 4 7 6 5 2 6 8 8 14 5 9 7 4 3 3 3 4 7 4 3 18 13 13 15 17 17 19
4 4 3 7 3 1 4 6 5 3 2 5 4 5 4 4 3 5 6 5 4 3 3 7 5 5 6 5 7 8 5 3 3 3 2 3 5 1 21 19 22 22 23 23 22
6 4 3 5 4 3 5 4 2 2 2 2 2 3 5 6 6 5 4 3 6 5 2 3 6 2 6 7 7 5 6 4 3 5 5 4 4 7 22 25 24 26 25 24 23
4 3 2 3 3 6 4 3 3 1 0 1 1 2 2 2 1 2 4 2 4 7 3 2 2 8 3 6 6 8 6 5 2 2 1 3 2 5 13 17 21 20 22 21 21
4 1 4 1 4 2 2 5 5 3 1 1 3 2 1 1 2 2 4 4 6 3 2 3 3 4 5 1 1 5 5 4 2 6 2 2 0 5 13 12 15 17 21 20 19
3 1 4 1 3 1 1 4 3 3 1 1 2 1 1 1 4 1 2 1 5 6 6 3 3 5 8 6 5 5 9 7 4 2 3 2 2 7 15 14 15 15 19 19 19
3 2 4 4 0 7 6 4 3 1 1 2 3 2 4 3 3 1 2 2 5 5 10 2 2 5 5 6 1 5 7 10 4 3 5 1 9 10 19 19 17 15 17 17 17
2 2 2 2 2 4 4 5 5 4 0 1 1 2 4 2 4 0 2 4 4 8 4 4 1 1 8 10 3 3 5 8 5 4 2 8 8 9 17 16 13 10 14 18 19
4 4 3 2 3 5 3 4 6 4 5 3 3 4 4 4 6 5 3 2 2 5 4 4 2 5 4 1 2 2 8 7 3 6 3 8 6 18 18 14 14 12 16 18 20
4 3 5 1 2 4 4 6 7 8 1 3 5 4 2 3 4 4 3 2 3 4 3 2 2 3 5 6 4 3 3 3 5 1 4 5 9 15 19 18 13 12 17 17 17